* Astronomy

Members Login
Username 
 
Password 
    Remember Me  
Post Info TOPIC: Asteroid 2012 VL5


L

Posts: 131433
Date:
Asteroid 2012 VL5
Permalink  
 


Orbital elements:
2012 VL5                                                 Earth MOID = 0.0119 AU
Epoch 2012 Sept. 30.0 TT = JDT 2456200.5                MPC
M 347.26200              (2000.0)            P               Q
n   0.40327786     Peri.  351.44509     +0.78965097     -0.61348820
a   1.8144004      Node    46.40120     +0.56367125     +0.71948304
e   0.4463170      Incl.    0.72331     +0.24233462     +0.32554015
P   2.44           H   28.3           G   0.15           U   6

MPEC 2012 - V20



__________________
Page 1 of 1  sorted by
 
Quick Reply

Please log in to post quick replies.



Create your own FREE Forum
Report Abuse
Powered by ActiveBoard